Lapse_Rate
4.6 6.5 6.5 6.5 6.5 6.5 6.5 6.5 6.5 6.5 6.5 6.5 6.5 6.5 6.5 6.2 5.8 5.8 5.3 4.5 4.5 4.9 4.6 3.6 3.2 3.2 3.1 2.6 2.2 2.3 1.7 1.8 1.7 1.5 1.8 3.0 3.7 2.8 3.7 3.4 4.2 4.7 4.7 4.5
6.5 6.5 6.5 6.5 6.5 6.5 6.5 6.5 6.5 6.5 6.5 6.5 6.5 6.5 6.5 6.2 6.2 6.1 5.7 5.4 5.3 4.6 4.2 3.9 2.9 2.5 2.0 2.3 1.8 2.1 1.8 0.8 1.1 1.5 1.1 1.4 2.1 2.1 2.4 3.3 3.9 4.0 4.3 4.7
6.5 6.5 6.3 6.5 6.5 6.5 6.5 6.5 6.5 6.5 6.5 6.5 6.5 6.5 6.5 6.4 6.2 5.9 5.7 5.7 5.7 5.0 4.6 4.0 3.2 2.6 1.9 1.9 1.2 2.2 1.9 1.2 1.3 0.7 1.4 1.8 2.7 3.5 3.5 2.5 2.7 2.0 2.3 4.0
6.5 6.3 6.5 6.5 6.5 6.5 6.5 6.5 6.5 6.5 6.5 6.5 6.5 6.5 6.5 6.5 6.5 6.2 5.4 4.5 4.8 5.2 4.9 4.3 3.6 3.0 2.1 2.2 2.2 2.4 2.3 2.2 2.2 0.4 0.8 0.8 1.4 1.9 2.0 1.6 1.6 1.8 2.3 3.8
6.5 6.5 6.5 6.5 6.5 6.5 6.5 6.5 6.5 6.5 6.5 6.5 6.5 6.5 6.5 6.5 6.5 6.5 5.2 4.3 4.2 5.2 5.0 4.5 4.1 3.5 3.1 1.9 1.9 1.8 2.3 2.3 2.0 1.1 0.8 0.2 0.9 0.6 0.7 1.4 1.8 2.3 2.5 2.7
6.5 6.3 6.4 6.5 6.5 6.5 6.4 6.5 6.5 6.5 6.5 6.5 6.5 6.5 6.5 6.5 6.5 6.5 5.8 4.5 4.3 5.1 4.9 4.1 3.8 3.4 2.4 1.9 1.4 1.5 2.2 2.5 2.2 1.3 0.9 0.4 0.2 0.7 0.8 1.4 2.0 2.1 2.1 2.5
6.5 6.5 6.4 6.1 6.5 6.5 6.5 6.5 6.5 6.5 6.5 6.5 6.5 6.5 6.5 6.5 6.5 6.4 5.9 4.2 4.1 4.6 4.0 3.3 2.8 1.7 1.6 1.7 1.5 1.8 2.4 2.1 2.2 2.2 1.9 1.4 1.4 1.0 0.7 0.7 1.2 1.3 1.8 2.3
6.5 6.5 6.5 6.3 6.5 6.5 6.5 6.5 6.5 6.5 6.5 6.5 6.5 6.5 6.5 6.5 5.9 5.2 4.9 4.2 4.6 4.2 3.2 3.5 3.5 2.1 1.2 1.4 1.6 2.4 2.1 2.2 2.4 2.8 3.3 2.9 2.5 2.0 1.5 0.9 0.9 1.4 1.7 2.2
6.5 6.5 6.5 6.5 6.4 6.4 6.5 6.5 6.5 6.5 6.5 6.5 6.5 6.5 6.5 6.5 6.4 5.1 4.2 4.2 3.3 3.1 3.1 3.1 2.9 1.5 0.8 0.6 1.2 1.8 2.1 2.2 2.1 2.3 2.7 3.6 4.6 3.3 2.1 1.8 1.4 1.5 1.4 2.4
6.5 6.5 6.5 6.5 6.3 6.3 6.5 6.5 6.5 6.5 6.5 6.5 6.5 6.5 6.5 6.5 6.5 6.6 5.8 4.0 3.0 2.9 2.8 2.2 1.5 1.0 0.6 0.5 0.5 2.4 3.4 2.1 1.5 1.7 2.0 2.7 3.3 4.1 3.9 2.9 2.3 1.9 2.1 1.7
6.5 6.5 6.5 6.5 6.5 6.5 6.5 6.5 6.5 6.5 6.5 6.5 6.5 6.5 6.5 6.5 6.5 6.5 4.8 3.6 2.9 2.8 2.5 1.9 1.0 0.4 -0.6 -0.4 -0.3 0.4 1.3 2.2 2.1 1.4 1.4 1.6 2.0 2.6 3.7 4.5 3.6 2.3 1.4 1.4
6.4 6.5 6.5 6.5 6.5 6.4 6.5 6.5 6.5 6.5 6.5 6.5 6.5 6.5 6.5 6.5 5.5 5.0 3.9 3.5 3.1 2.6 2.1 1.5 0.6 -0.2 -0.8 -0.9 -0.5 -0.3 0.0 0.7 1.8 1.3 1.3 1.0 1.0 1.6 2.5 3.4 3.7 3.4 2.2 1.6
6.5 6.5 6.5 6.5 6.5 6.5 6.5 6.5 6.5 6.5 6.5 6.5 6.5 6.5 6.4 5.5 5.3 3.7 4.0 2.7 2.5 2.6 2.2 1.3 -0.0 -0.6 -0.7 -1.2 -1.3 -1.0 -0.5 -0.4 0.3 1.3 1.2 0.9 0.9 1.3 1.2 2.1 2.8 2.8 2.8 2.0
6.1 6.5 6.5 6.5 6.5 6.5 6.5 6.5 6.5 6.5 6.5 6.5 6.5 6.5 6.5 6.5 6.5 2.7 0.9 0.1 -0.7 -0.1 0.1 0.3 -0.6 -1.3 -1.6 -1.1 -1.3 -1.2 -0.8 -0.7 0.1 0.5 1.2 1.1 0.6 0.7 1.0 1.0 1.4 1.7 1.5 1.1
6.4 6.5 6.5 6.5 6.5 6.5 6.5 6.5 6.5 6.5 6.5 6.5 6.5 6.5 6.5 6.5 6.7 1.1 -1.2 -0.3 0.6 -0.8 0.1 -0.8 -3.5 -2.7 -2.8 -3.6 -2.1 -1.3 -1.4 -1.1 -0.4 0.9 0.1 1.0 0.8 0.6 0.3 0.2 0.1 -0.1 -0.3 -0.4
6.4 6.5 6.5 6.5 6.5 6.5 6.5 6.5 6.5 6.5 6.5 6.5 6.5 6.5 6.2 3.9 3.8 -0.2 -1.1 -0.7 -0.7 -1.6 -2.3 -2.6 -3.1 -3.1 -2.6 -4.4 -3.1 -1.0 -2.2 -1.1 -1.2 -1.0 1.0 1.0 0.5 -0.0 -0.2 -0.3 -0.4 -0.7 -1.2 -1.2
6.5 6.5 6.5 6.5 6.5 6.5 6.5 6.5 6.5 6.5 6.5 6.5 6.5 6.5 6.2 6.5 5.4 2.5 2.1 1.1 -0.3 -0.3 -0.2 -1.4 -1.5 -2.4 -3.2 -3.1 -1.2 -1.4 -1.2 -0.8 -0.7 -0.8 -0.3 0.3 0.0 -0.3 -0.6 -1.0 -1.1 -1.5 -1.5 -2.0
6.5 6.5 6.5 6.5 6.5 6.5 6.5 6.5 6.5 6.5 6.5 6.5 6.5 6.5 5.7 4.9 3.8 2.5 1.9 1.9 0.8 0.4 -0.3 -1.0 -1.2 -1.6 -2.4 -3.0 -4.2 -1.7 -1.3 -1.2 -1.1 0.2 0.5 0.0 -0.1 -1.0 -1.2 -0.9 -0.9 -1.3 -1.4 -1.8
6.2 6.5 6.5 6.5 6.5 6.5 6.5 6.5 6.5 6.5 6.5 6.5 6.5 6.3 4.8 4.5 3.8 1.6 0.6 -0.8 -0.9 0.2 0.3 -0.8 -1.6 -2.0 -2.9 -3.0 -3.0 -2.8 -2.3 -1.8 -1.9 -1.0 -1.0 -1.6 -1.5 -1.5 -1.4 -1.5 -1.9 -2.4 -1.9 -1.5
6.5 6.5 6.5 6.5 6.5 6.5 6.5 6.5 4.8 5.7 6.5 5.2 5.8 5.6 5.3 5.1 6.5 6.4 2.8 0.9 -1.2 -1.8 0.0 -1.1 -2.4 -3.1 -3.5 -3.5 -3.4 -2.7 -2.8 -2.9 -3.0 -2.6 -2.3 -2.7 -2.8 -2.9 -2.7 -2.6 -2.3 -2.3 -2.2 -1.6
6.5 6.5 6.5 6.5 6.5 6.5 6.5 5.2 4.3 6.5 6.5 3.4 1.6 2.5 3.0 6.1 2.8 2.3 1.7 1.7 -0.0 -1.9 -2.6 -1.9 -3.0 -3.2 -3.4 -4.8 -4.0 -2.9 -3.1 -3.6 -3.3 -4.6 -4.2 -4.0 -3.4 -3.1 -3.0 -3.2 -3.4 -3.0 -3.0 -3.4
6.5 6.5 6.5 6.5 6.5 6.5 4.4 6.0 6.5 5.7 4.4 2.0 0.7 0.7 0.5 -0.6 0.3 1.4 1.0 1.3 -0.1 -1.0 -3.1 -5.0 -4.2 -3.1 -4.6 -5.5 -4.9 -3.9 -3.7 -4.1 -6.1 -6.6 -6.0 -5.8 -5.6 -3.4 -3.7 -4.8 -5.2 -5.1 -4.8 -5.1
6.5 6.5 6.5 6.5 6.5 5.6 4.5 4.9 0.8 1.2 2.0 2.4 1.7 0.8 -0.3 0.2 -0.5 -0.5 -0.8 -0.7 -1.2 -1.8 -2.7 -3.9 -5.1 -6.1 -7.5 -6.9 -5.9 -5.4 -5.3 -6.7 -7.5 -7.9 -8.2 -6.5 -6.9 -5.2 -4.6 -4.8 -5.5 -6.0 -6.3 -5.8
6.5 5.2 6.5 6.5 6.3 6.0 2.6 1.8 -0.4 0.0 0.3 1.9 1.9 1.8 -0.4 0.7 0.1 -0.4 -0.9 -2.0 -2.4 -3.1 -4.6 -6.0 -6.5 -6.6 -6.3 -8.8 -7.5 -5.7 -7.5 -8.1 -8.2 -7.9 -8.0 -8.1 -6.3 -6.0 -6.8 -4.8 -4.5 -5.2 -6.3 -6.7
5.5 6.2 6.5 6.5 5.8 4.7 1.9 0.6 0.5 -0.6 -1.4 -0.2 -0.8 -0.0 -0.1 0.3 -0.5 -0.7 -0.5 -1.7 -2.7 -3.8 -6.4 -6.2 -5.1 -4.8 -5.2 -6.9 -7.4 -8.0 -8.7 -8.9 -8.0 -8.3 -8.3 -7.8 -7.4 -7.1 -7.0 -6.0 -5.1 -4.9 -5.8 -4.8
5.2 6.5 6.5 6.5 3.9 3.8 3.4 -2.0 -2.4 -2.1 -2.3 -2.2 -2.0 -1.4 -2.6 -2.2 -1.6 -1.9 -2.1 -2.9 -3.5 -4.0 -7.4 -5.9 -5.2 -5.1 -5.0 -6.6 -6.0 -7.7 -8.5 -8.8 -8.2 -7.4 -7.8 -7.5 -7.0 -7.4 -7.2 -7.2 -7.9 -4.1 -3.5 -3.2
Wind_Speed
5 8 3 3 3 1 1 1 3 4 2 6 2 4 5 2 1 1 3 4 5 5 5 7 6 6 8 9 11 11 11 12 9 7 3 3 3 3 3 7 6 8 11 15
6 4 5 4 7 5 3 2 4 6 4 3 3 6 5 3 2 2 1 2 3 5 6 5 7 7 7 8 9 9 10 10 8 7 4 2 3 3 2 6 7 10 4 5
6 1 3 4 7 5 2 2 4 4 6 0 6 5 4 3 2 2 2 2 3 4 6 5 6 6 7 7 8 8 7 8 7 9 6 5 2 4 2 4 5 9 10 7
4 4 3 5 5 3 3 2 4 4 4 1 4 4 4 4 6 5 5 5 5 5 4 4 6 6 7 6 6 6 6 6 7 7 7 7 4 3 4 4 4 5 7 9
1 2 4 5 2 2 6 4 3 2 1 2 2 3 6 2 6 8 6 6 6 4 4 4 5 4 5 6 6 6 6 6 7 7 6 5 6 5 4 6 7 4 5 5
1 1 3 0 2 3 5 1 3 3 1 3 2 4 5 3 4 3 3 6 6 4 2 4 3 4 4 5 6 7 7 6 6 7 7 5 5 7 6 6 5 5 4 4
6 3 2 3 4 3 8 4 3 5 4 4 1 2 8 3 4 3 5 7 6 5 2 3 5 6 6 6 6 6 6 7 6 6 5 5 5 5 5 5 5 7 5 4
3 6 4 5 4 1 3 2 4 4 2 5 2 4 3 2 3 4 5 6 4 5 3 3 2 2 5 6 6 7 8 8 7 7 6 5 5 3 4 3 4 4 4 5
4 4 4 3 2 4 5 4 1 5 1 2 4 6 5 2 5 6 8 6 8 7 5 4 3 2 4 6 6 6 8 8 7 7 6 7 6 5 4 5 4 4 4 5
2 3 3 2 2 4 3 2 3 3 3 4 5 5 4 4 6 5 6 7 8 6 7 6 3 3 3 4 5 6 5 6 7 7 6 6 7 8 7 6 5 5 5 5
3 3 5 1 1 4 3 2 1 1 2 4 1 6 6 6 5 7 8 7 7 7 7 6 4 4 4 5 5 5 6 6 6 6 6 7 6 7 7 6 6 6 5 6
3 3 2 6 2 3 3 2 3 4 6 0 2 6 4 6 6 5 8 7 5 6 6 4 4 4 5 5 5 5 5 5 5 5 6 6 6 6 6 5 6 6 5 5
4 1 3 7 4 4 3 3 2 4 2 5 5 6 2 5 6 7 8 8 7 6 5 5 5 5 5 5 5 5 5 5 5 5 5 6 6 6 6 6 6 6 5 5
5 2 5 5 5 4 3 5 5 5 3 2 6 8 10 6 7 8 8 7 7 7 4 6 5 6 5 4 4 4 5 5 6 5 5 5 6 6 5 6 6 6 6 6
3 3 2 4 2 3 4 5 9 9 5 6 4 6 11 10 8 7 4 3 6 6 7 8 5 5 5 5 4 4 4 4 4 4 5 5 5 5 5 6 6 6 7 7
1 1 2 4 3 1 6 10 11 8 5 11 10 21 13 7 3 4 6 4 7 6 8 8 6 6 7 6 4 4 2 4 4 4 4 4 5 5 5 5 5 6 7 7
5 5 3 5 2 5 7 8 13 5 5 10 6 12 3 3 6 5 6 6 8 8 8 7 8 7 5 5 5 3 2 2 2 3 4 5 5 5 5 6 7 7 6 6
5 4 2 3 5 3 5 4 6 8 5 16 11 9 6 5 4 7 8 7 8 8 8 8 6 5 5 4 3 3 2 1 1 2 3 4 4 5 5 5 5 6 4 5
1 4 2 2 3 7 1 5 8 8 8 20 22 17 6 5 6 8 6 11 11 8 7 7 7 5 4 6 5 5 4 3 3 2 3 3 3 4 4 4 4 3 4 5
3 5 3 3 3 6 4 3 5 4 5 7 15 9 5 3 1 4 2 3 5 8 4 6 7 6 7 6 5 5 5 4 4 5 4 4 4 4 5 4 3 2 4 3
3 2 5 2 3 9 7 7 6 5 6 5 8 7 8 6 6 2 2 2 1 4 9 6 6 7 7 8 6 6 4 6 5 2 2 3 4 4 4 2 2 3 4 4
9 8 4 3 1 9 8 5 9 4 2 5 5 6 9 8 6 5 6 4 4 5 5 9 8 6 6 8 8 7 7 4 3 3 2 1 1 2 3 3 2 3 3 3
5 8 7 11 8 1 14 3 7 3 4 5 5 5 7 7 7 9 8 8 8 7 7 5 7 9 6 6 7 8 6 7 5 4 3 3 1 1 3 4 4 2 2 3
5 4 3 2 7 15 9 12 6 6 7 4 4 5 7 6 6 8 7 7 7 6 7 5 7 7 8 10 10 10 6 7 8 7 5 4 5 4 2 2 3 3 3 2
5 12 6 6 8 3 11 12 13 13 8 7 6 7 9 6 9 8 8 8 7 7 5 5 9 10 12 8 11 9 8 8 7 6 6 6 5 6 4 4 5 5 3 4
6 8 8 8 8 7 4 8 9 11 11 14 9 6 9 9 11 7 9 8 5 7 4 6 9 10 10 8 9 6 7 9 10 7 5 6 5 5 4 4 3 9 10 15
Wind_Direction
24 64 31 52 8 281 223 253 297 278 283 355 270 280 260 290 45 11 25 358 339 336 327 345 351 349 349 3 11 10 4 359 7 349 5 347 335 335 17 358 203 174 180 176
36 61 292 131 49 64 44 343 310 274 268 352 328 287 245 245 246 234 219 307 311 321 330 343 342 350 358 353 3 8 3 360 356 340 352 357 319 306 307 331 332 71 22 218
115 253 318 91 57 26 24 38 318 268 323 86 342 308 268 261 220 184 237 267 277 289 311 327 343 343 347 353 358 354 3 353 346 352 342 346 289 276 1 19 6 19 6 273
84 335 51 82 82 47 312 190 296 298 10 324 45 287 286 258 258 245 246 274 278 282 308 316 339 347 342 337 341 343 354 351 354 352 352 4 339 337 355 332 327 356 324 319
227 25 23 71 90 95 238 347 278 289 343 28 5 69 269 22 281 262 254 254 266 243 283 315 321 324 324 335 332 332 348 355 353 352 355 356 346 330 342 335 335 342 338 359
74 212 73 152 275 170 302 52 33 29 45 32 289 108 286 241 235 305 260 258 259 235 255 301 310 319 319 339 337 347 354 341 347 360 342 351 339 336 346 338 336 348 343 342
344 347 347 43 41 49 35 45 348 347 14 214 36 93 246 277 255 236 255 261 256 219 238 280 327 339 333 340 344 338 347 344 343 343 334 331 319 320 320 334 334 339 344 341
132 331 354 337 90 166 358 79 135 253 322 280 287 240 261 218 268 268 269 266 252 254 250 268 288 326 328 332 338 336 349 347 348 343 332 325 321 310 306 313 314 308 308 313
113 311 316 67 115 104 316 33 138 111 8 345 275 292 300 277 289 283 272 268 265 273 289 296 324 346 337 340 330 342 343 339 342 338 335 331 333 321 310 303 289 282 290 301
178 41 289 281 159 82 105 170 17 2 22 317 299 287 246 256 260 263 277 256 266 274 286 295 322 321 346 331 333 329 337 335 335 336 338 337 337 326 326 317 310 320 318 321
133 117 285 330 345 143 40 355 55 101 126 171 291 274 215 217 219 229 259 260 257 259 265 283 306 321 331 337 349 338 340 340 342 337 338 347 343 336 334 331 333 328 323 332
200 146 139 238 210 109 135 230 164 126 279 188 157 275 240 233 248 224 263 274 268 234 246 271 295 312 323 329 341 336 338 344 330 332 355 356 356 349 354 350 343 343 343 345
190 325 27 339 7 7 168 187 148 93 57 209 140 264 283 284 275 261 257 273 274 256 237 267 294 294 304 316 327 334 333 328 340 345 358 5 2 3 1 360 1 10 12 20
99 90 166 197 199 128 187 174 172 137 121 198 230 292 294 280 270 286 283 278 278 264 233 270 267 279 286 288 297 321 330 343 336 355 359 13 7 357 1 10 16 25 23 33
131 211 159 263 281 288 240 188 171 186 207 182 265 229 273 278 269 257 246 287 287 279 251 242 242 245 264 283 296 314 328 339 346 1 3 4 6 13 7 22 23 30 34 37
148 202 102 293 353 264 261 225 197 194 222 273 275 282 260 273 240 248 254 238 261 253 252 255 239 229 241 233 257 285 314 337 1 17 11 3 14 16 16 23 27 40 42 41
157 136 87 272 326 308 298 220 191 167 191 200 193 226 246 266 249 256 246 217 236 242 236 228 235 228 224 212 197 239 283 314 11 16 11 14 18 23 18 19 31 28 35 45
140 105 82 258 351 344 234 149 198 186 220 216 265 248 226 239 262 266 241 225 227 227 228 223 216 218 219 195 177 162 188 202 103 88 58 33 32 28 20 36 41 32 27 38
81 128 80 151 213 294 195 188 160 163 272 207 223 249 249 282 318 290 244 223 223 207 215 211 190 180 177 185 185 178 178 191 173 125 100 85 91 82 61 56 56 40 45 46
80 74 118 88 167 220 243 168 181 160 297 181 188 225 202 169 244 257 225 248 210 171 171 184 176 155 159 188 173 186 192 197 212 184 158 141 124 121 103 83 61 57 64 63
116 51 180 165 245 285 236 151 163 91 238 162 177 177 155 191 222 244 327 308 318 203 160 150 179 179 179 159 165 206 221 217 209 193 162 143 136 124 105 76 63 81 81 76
163 152 189 95 115 274 145 84 175 208 111 156 184 192 187 214 266 253 259 251 194 202 182 162 169 205 187 168 164 191 217 218 159 150 153 143 140 134 121 122 68 73 89 80
209 186 177 192 210 235 196 186 211 177 167 184 177 203 207 213 238 252 247 234 225 211 204 197 195 177 187 191 185 188 210 167 159 153 173 184 253 205 153 148 144 121 120 125
233 167 189 98 235 230 220 240 249 208 218 176 187 177 183 217 236 258 258 249 236 221 214 186 170 208 215 190 195 208 173 166 163 180 190 180 192 206 221 168 172 153 162 160
177 143 172 261 271 283 242 225 229 230 205 234 226 212 221 214 258 235 257 244 231 225 199 187 207 217 220 194 211 195 175 161 181 182 182 191 189 196 199 205 190 191 211 184
188 168 179 219 204 188 222 199 192 208 212 222 217 238 243 203 241 246 252 245 217 226 191 203 220 227 229 194 208 194 182 178 172 190 198 199 196 191 190 196 238 235 218 212